WTB44J MYNN-MTPP

Flight info

Callsign WTB44J
Flight time N/A
Altitude 35000
Route BOSAR DCT KNSLY DCT JOSES/N0399F230 A315 SAVAR SAVAR1D
Aircraft A321/M-SDE3FGHIRWY/LB1

Departure

Time N/A
Airport Lynden Pindling International Airport (MYNN)

Arrival

Time 2026-04-20 19:58
Airport Toussaint Louverture International Airport (MTPP)
Time Latitude Longitude Altitude Speed Heading
2026-04-20 18:48 24.55418 -76.77592 16676 ft 422 kts 143°
2026-04-20 18:48 24.53139 -76.75559 17082 ft 424 kts 143°
2026-04-20 18:49 24.50833 -76.73500 17490 ft 427 kts 143°
2026-04-20 18:49 24.48520 -76.71436 17882 ft 430 kts 143°
2026-04-20 18:49 24.46191 -76.69356 18288 ft 433 kts 143°
2026-04-20 18:49 24.43849 -76.67266 18631 ft 435 kts 143°
2026-04-20 18:50 24.41489 -76.65162 18965 ft 438 kts 143°
2026-04-20 18:50 24.39115 -76.63052 19292 ft 441 kts 143°
2026-04-20 18:50 24.36726 -76.60927 19621 ft 444 kts 143°
2026-04-20 18:50 24.34326 -76.58789 19949 ft 446 kts 143°
2026-04-20 18:51 24.31929 -76.56659 20263 ft 449 kts 143°
2026-04-20 18:51 24.29493 -76.54493 20582 ft 452 kts 143°
2026-04-20 18:51 24.27045 -76.52315 20897 ft 455 kts 143°
2026-04-20 18:51 24.24577 -76.50120 21218 ft 458 kts 143°
2026-04-20 18:52 24.22097 -76.47920 21519 ft 460 kts 144°
2026-04-20 18:52 24.19601 -76.45707 21842 ft 463 kts 144°
2026-04-20 18:52 24.17089 -76.43479 22159 ft 466 kts 143°
2026-04-20 18:52 24.14566 -76.41242 22461 ft 469 kts 144°
2026-04-20 18:53 24.12022 -76.38990 22764 ft 471 kts 144°
2026-04-20 18:53 24.09465 -76.36730 23058 ft 474 kts 144°
2026-04-20 18:53 24.06893 -76.34455 23348 ft 476 kts 143°
2026-04-20 18:53 24.04310 -76.32171 23626 ft 479 kts 144°
2026-04-20 18:54 24.01710 -76.29874 23869 ft 482 kts 144°
2026-04-20 18:54 23.99099 -76.27569 24113 ft 484 kts 144°
2026-04-20 18:54 23.96474 -76.25252 24361 ft 486 kts 144°
2026-04-20 18:54 23.93840 -76.22931 24605 ft 488 kts 144°
2026-04-20 18:55 23.91193 -76.20595 24863 ft 489 kts 144°
2026-04-20 18:55 23.88540 -76.18251 25117 ft 491 kts 144°
2026-04-20 18:55 23.85875 -76.15900 25370 ft 493 kts 144°
2026-04-20 18:55 23.83201 -76.13543 25609 ft 495 kts 144°
2026-04-20 18:56 23.80514 -76.11179 25852 ft 497 kts 144°
2026-04-20 18:56 23.77816 -76.08806 26095 ft 499 kts 144°
2026-04-20 18:56 23.75105 -76.06425 26347 ft 501 kts 144°
2026-04-20 18:56 23.72390 -76.04041 26577 ft 503 kts 144°
2026-04-20 18:57 23.69662 -76.01637 26808 ft 505 kts 144°
2026-04-20 18:57 23.66927 -75.99230 27056 ft 507 kts 144°
2026-04-20 18:57 23.65103 -75.97629 27212 ft 508 kts 144°
2026-04-20 18:57 23.62351 -75.95214 27462 ft 510 kts 144°
2026-04-20 18:58 23.59583 -75.92787 27691 ft 511 kts 144°
2026-04-20 18:58 23.55902 -75.89567 28088 ft 511 kts 144°
2026-04-20 18:58 23.54030 -75.87932 28311 ft 511 kts 144°
2026-04-20 18:58 23.50364 -75.84729 28722 ft 510 kts 144°
2026-04-20 18:59 23.48491 -75.83092 28929 ft 510 kts 144°
2026-04-20 18:59 23.45726 -75.80678 29245 ft 510 kts 144°
2026-04-20 18:59 23.42958 -75.78263 29538 ft 509 kts 144°
2026-04-20 18:59 23.40192 -75.75848 29834 ft 509 kts 144°
2026-04-20 19:00 23.37476 -75.73472 30119 ft 509 kts 144°
2026-04-20 19:00 23.34707 -75.71054 30366 ft 509 kts 144°
2026-04-20 19:00 23.31946 -75.68648 30601 ft 509 kts 144°
2026-04-20 19:00 23.29141 -75.66210 30837 ft 509 kts 144°
2026-04-20 19:01 23.26411 -75.63837 31060 ft 510 kts 144°
2026-04-20 19:01 23.23642 -75.61426 31303 ft 510 kts 144°
2026-04-20 19:01 23.20874 -75.59018 31532 ft 510 kts 144°
2026-04-20 19:01 23.18105 -75.56612 31772 ft 510 kts 145°
2026-04-20 19:02 23.15331 -75.54205 32011 ft 510 kts 145°
2026-04-20 19:02 23.12556 -75.51797 32243 ft 510 kts 145°
2026-04-20 19:02 23.09779 -75.49390 32479 ft 511 kts 145°
2026-04-20 19:02 23.07003 -75.46984 32700 ft 511 kts 145°
2026-04-20 19:03 23.04228 -75.44574 32942 ft 511 kts 145°
2026-04-20 19:03 23.01449 -75.42165 33170 ft 511 kts 145°
2026-04-20 19:03 22.98669 -75.39756 33401 ft 511 kts 145°
2026-04-20 19:03 22.95885 -75.37346 33646 ft 511 kts 145°
2026-04-20 19:04 22.93102 -75.34939 33850 ft 512 kts 145°
2026-04-20 19:04 22.90319 -75.32534 34075 ft 512 kts 145°
2026-04-20 19:04 22.87535 -75.30128 34272 ft 512 kts 145°
2026-04-20 19:04 22.84753 -75.27725 34482 ft 511 kts 145°
2026-04-20 19:05 22.81969 -75.25320 34678 ft 511 kts 145°
2026-04-20 19:05 22.79187 -75.22922 34865 ft 511 kts 145°
2026-04-20 19:05 22.76403 -75.20528 35033 ft 511 kts 145°
2026-04-20 19:05 22.73620 -75.18133 35073 ft 510 kts 145°
2026-04-20 19:06 22.68073 -75.13364 35069 ft 508 kts 145°
2026-04-20 19:06 22.62572 -75.08635 35070 ft 508 kts 145°
2026-04-20 19:07 22.57036 -75.03870 35068 ft 508 kts 145°
2026-04-20 19:07 22.51496 -74.99115 35066 ft 508 kts 145°
2026-04-20 19:08 22.43193 -74.91993 35062 ft 508 kts 145°
2026-04-20 19:09 22.37656 -74.87250 35068 ft 508 kts 145°
2026-04-20 19:09 22.32116 -74.82516 35071 ft 508 kts 145°
2026-04-20 19:10 22.26589 -74.77787 35065 ft 507 kts 145°
2026-04-20 19:10 22.21050 -74.73065 35064 ft 507 kts 145°
2026-04-20 19:11 22.15512 -74.68355 35062 ft 507 kts 145°
2026-04-20 19:11 22.09981 -74.63647 35067 ft 506 kts 145°
2026-04-20 19:12 22.04452 -74.58929 35071 ft 506 kts 145°
2026-04-20 19:12 21.98924 -74.54236 35068 ft 505 kts 145°
2026-04-20 19:13 21.93435 -74.49585 35066 ft 505 kts 145°
2026-04-20 19:13 21.87913 -74.44910 35065 ft 504 kts 145°
2026-04-20 19:14 21.82402 -74.40240 35067 ft 504 kts 145°
2026-04-20 19:14 21.76901 -74.35574 35060 ft 503 kts 145°
2026-04-20 19:15 21.71393 -74.30922 35063 ft 503 kts 145°
2026-04-20 19:15 21.65894 -74.26275 35059 ft 503 kts 144°
2026-04-20 19:16 21.60397 -74.21635 35057 ft 502 kts 145°
2026-04-20 19:16 21.54933 -74.17034 35058 ft 502 kts 144°
2026-04-20 19:17 21.49441 -74.12405 35061 ft 502 kts 144°
2026-04-20 19:17 21.43949 -74.07783 35058 ft 501 kts 144°
2026-04-20 19:18 21.38465 -74.03174 35055 ft 501 kts 144°
2026-04-20 19:18 21.32972 -73.98566 35053 ft 501 kts 144°
2026-04-20 19:19 21.27470 -73.93958 35049 ft 501 kts 144°
2026-04-20 19:19 21.21999 -73.89360 35048 ft 501 kts 144°
2026-04-20 19:20 21.16514 -73.84760 35054 ft 500 kts 144°
2026-04-20 19:20 21.11013 -73.80164 35049 ft 500 kts 144°
2026-04-20 19:21 21.05527 -73.75583 35051 ft 500 kts 144°
2026-04-20 19:21 21.00036 -73.71002 35042 ft 500 kts 144°
2026-04-20 19:22 20.94358 -73.66738 35045 ft 496 kts 155°
2026-04-20 19:22 20.88298 -73.63326 35041 ft 496 kts 155°
2026-04-20 19:23 20.82198 -73.59885 35039 ft 496 kts 155°
2026-04-20 19:23 20.76097 -73.56440 35039 ft 496 kts 155°
2026-04-20 19:24 20.69996 -73.53002 35037 ft 496 kts 155°
2026-04-20 19:24 20.63901 -73.49561 35037 ft 496 kts 155°
2026-04-20 19:25 20.57795 -73.46121 35038 ft 496 kts 155°
2026-04-20 19:25 20.51687 -73.42690 35038 ft 496 kts 155°
2026-04-20 19:26 20.45587 -73.39265 35038 ft 496 kts 155°
2026-04-20 19:26 20.39479 -73.35840 35037 ft 496 kts 155°
2026-04-20 19:27 20.33371 -73.32424 35036 ft 496 kts 155°
2026-04-20 19:27 20.27262 -73.29000 35034 ft 496 kts 155°
2026-04-20 19:28 20.21188 -73.25600 35036 ft 496 kts 155°
2026-04-20 19:28 20.15073 -73.22192 35034 ft 496 kts 155°
2026-04-20 19:29 20.08962 -73.18780 35034 ft 496 kts 155°
2026-04-20 19:29 20.02860 -73.15366 35035 ft 496 kts 155°
2026-04-20 19:30 19.96744 -73.11969 35033 ft 496 kts 155°
2026-04-20 19:30 19.90617 -73.08574 35037 ft 496 kts 155°
2026-04-20 19:31 19.84514 -73.05159 35033 ft 496 kts 155°
2026-04-20 19:31 19.81475 -73.03442 34825 ft 496 kts 155°
2026-04-20 19:31 19.78425 -73.01714 34591 ft 496 kts 155°
2026-04-20 19:31 19.75396 -72.99990 34354 ft 496 kts 154°
2026-04-20 19:32 19.72364 -72.98213 33721 ft 500 kts 153°
2026-04-20 19:32 19.69350 -72.96401 32831 ft 505 kts 153°
2026-04-20 19:32 19.66303 -72.94537 31974 ft 509 kts 152°
2026-04-20 19:32 19.63191 -72.92626 31066 ft 513 kts 152°
2026-04-20 19:33 19.60117 -72.90747 30147 ft 519 kts 152°
2026-04-20 19:33 19.56960 -72.88831 29041 ft 524 kts 152°
2026-04-20 19:33 19.53786 -72.86922 28021 ft 525 kts 152°
2026-04-20 19:33 19.50603 -72.85018 27034 ft 526 kts 152°
2026-04-20 19:34 19.47421 -72.83121 26321 ft 521 kts 152°
2026-04-20 19:34 19.44278 -72.81247 25631 ft 516 kts 152°
2026-04-20 19:34 19.41168 -72.79390 25059 ft 510 kts 152°
2026-04-20 19:34 19.38084 -72.77545 24341 ft 508 kts 152°
2026-04-20 19:35 19.35042 -72.75723 23855 ft 495 kts 152°
2026-04-20 19:35 19.32068 -72.73942 22859 ft 487 kts 151°
2026-04-20 19:35 19.29163 -72.72203 22237 ft 471 kts 151°
2026-04-20 19:35 19.26364 -72.70527 21645 ft 455 kts 151°
2026-04-20 19:36 19.23649 -72.68905 21096 ft 441 kts 151°
2026-04-20 19:36 19.21026 -72.67339 20565 ft 427 kts 151°
2026-04-20 19:36 19.18477 -72.65816 20042 ft 414 kts 151°
2026-04-20 19:36 19.15982 -72.64327 19558 ft 411 kts 151°
2026-04-20 19:37 19.13383 -72.62976 19082 ft 423 kts 158°
2026-04-20 19:37 19.10646 -72.61825 18339 ft 422 kts 159°
2026-04-20 19:37 19.07914 -72.60704 17369 ft 419 kts 159°
2026-04-20 19:37 19.05200 -72.59600 16677 ft 416 kts 159°
2026-04-20 19:38 19.02542 -72.58520 16542 ft 402 kts 159°
2026-04-20 19:38 18.99973 -72.57477 16417 ft 389 kts 159°
2026-04-20 19:38 18.97486 -72.56469 16298 ft 376 kts 159°
2026-04-20 19:38 18.95078 -72.55491 16169 ft 364 kts 159°
2026-04-20 19:39 18.92752 -72.54545 16043 ft 353 kts 159°
2026-04-20 19:39 18.90495 -72.53628 15921 ft 342 kts 159°
2026-04-20 19:39 18.88307 -72.52740 15798 ft 332 kts 159°
2026-04-20 19:39 18.86179 -72.51876 15574 ft 326 kts 159°
2026-04-20 19:40 18.84076 -72.51020 15270 ft 322 kts 159°
2026-04-20 19:40 18.81988 -72.50170 14945 ft 320 kts 159°
2026-04-20 19:40 18.79919 -72.49324 14626 ft 318 kts 158°
2026-04-20 19:40 18.78063 -72.48104 14320 ft 314 kts 134°
2026-04-20 19:41 18.76850 -72.46222 13994 ft 311 kts 109°
2026-04-20 19:41 18.76488 -72.44008 13626 ft 307 kts 84°
2026-04-20 19:41 18.76945 -72.41820 13218 ft 305 kts 71°
2026-04-20 19:41 18.77636 -72.39705 12836 ft 304 kts 69°
2026-04-20 19:42 18.78351 -72.37610 12485 ft 303 kts 69°
2026-04-20 19:42 18.79060 -72.35521 12151 ft 301 kts 70°
2026-04-20 19:42 18.79768 -72.33449 11815 ft 299 kts 69°
2026-04-20 19:42 18.80470 -72.31418 11503 ft 297 kts 69°
2026-04-20 19:43 18.81191 -72.29347 11173 ft 295 kts 69°
2026-04-20 19:43 18.81900 -72.27322 10843 ft 293 kts 69°
2026-04-20 19:43 18.82608 -72.25311 10522 ft 292 kts 69°
2026-04-20 19:43 18.83304 -72.23341 10191 ft 290 kts 69°
2026-04-20 19:44 18.84011 -72.21353 9852 ft 288 kts 69°
2026-04-20 19:44 18.84718 -72.19375 9496 ft 287 kts 69°
2026-04-20 19:44 18.85422 -72.17411 9130 ft 285 kts 69°
2026-04-20 19:44 18.86121 -72.15469 9008 ft 280 kts 69°
2026-04-20 19:45 18.86796 -72.13594 9013 ft 267 kts 69°
2026-04-20 19:45 18.87293 -72.11726 9011 ft 264 kts 88°
2026-04-20 19:45 18.86972 -72.09845 9019 ft 263 kts 116°
2026-04-20 19:45 18.85833 -72.08356 9023 ft 263 kts 145°
2026-04-20 19:46 18.84153 -72.07631 9022 ft 263 kts 174°
2026-04-20 19:46 18.82352 -72.07850 9022 ft 263 kts 203°
2026-04-20 19:46 18.80876 -72.08957 9024 ft 263 kts 232°
2026-04-20 19:46 18.80068 -72.10666 9029 ft 263 kts 255°
2026-04-20 19:47 18.79636 -72.12551 9029 ft 264 kts 258°
2026-04-20 19:47 18.79244 -72.14442 8897 ft 263 kts 253°
2026-04-20 19:47 18.78298 -72.16045 8542 ft 260 kts 217°
2026-04-20 19:47 18.76662 -72.16746 8175 ft 257 kts 181°
2026-04-20 19:48 18.74968 -72.16288 7802 ft 254 kts 147°
2026-04-20 19:48 18.73503 -72.15221 7405 ft 256 kts 144°
2026-04-20 19:48 18.71954 -72.14305 7073 ft 255 kts 160°
2026-04-20 19:48 18.70313 -72.13693 6763 ft 253 kts 160°
2026-04-20 19:49 18.68654 -72.13077 6468 ft 252 kts 160°
2026-04-20 19:49 18.67005 -72.12463 6150 ft 251 kts 159°
2026-04-20 19:49 18.65475 -72.11606 5834 ft 249 kts 143°
2026-04-20 19:49 18.64232 -72.10348 5511 ft 248 kts 127°
2026-04-20 19:50 18.63361 -72.08786 5192 ft 247 kts 112°
2026-04-20 19:50 18.62841 -72.07064 4910 ft 244 kts 107°
2026-04-20 19:50 18.62524 -72.05946 4832 ft 236 kts 107°
2026-04-20 19:50 18.62068 -72.04356 4824 ft 216 kts 107°
2026-04-20 19:51 18.61650 -72.02910 4829 ft 200 kts 107°
2026-04-20 19:51 18.61246 -72.01519 4827 ft 197 kts 107°
2026-04-20 19:51 18.60690 -72.00211 4815 ft 196 kts 129°
2026-04-20 19:51 18.59596 -71.99386 4830 ft 195 kts 161°
2026-04-20 19:52 18.58271 -71.99281 4661 ft 192 kts 192°
2026-04-20 19:52 18.57006 -71.99710 4280 ft 192 kts 205°
2026-04-20 19:52 18.56048 -72.00641 4137 ft 190 kts 239°
2026-04-20 19:52 18.55702 -72.01988 4138 ft 194 kts 271°
2026-04-20 19:53 18.56009 -72.03373 4141 ft 195 kts 287°
2026-04-20 19:53 18.56410 -72.04741 4137 ft 195 kts 286°
2026-04-20 19:53 18.56806 -72.06106 4134 ft 195 kts 286°
2026-04-20 19:53 18.57203 -72.07478 3907 ft 195 kts 286°
2026-04-20 19:54 18.57596 -72.08838 3657 ft 193 kts 286°
2026-04-20 19:54 18.57985 -72.10185 3403 ft 192 kts 286°
2026-04-20 19:54 18.58375 -72.11539 3154 ft 195 kts 285°
2026-04-20 19:54 18.58739 -72.12926 2869 ft 198 kts 278°
2026-04-20 19:55 18.58755 -72.14365 2629 ft 193 kts 266°
2026-04-20 19:55 18.58681 -72.15752 2398 ft 185 kts 266°
2026-04-20 19:55 18.58614 -72.17070 2166 ft 176 kts 267°
2026-04-20 19:55 18.58550 -72.18316 1982 ft 163 kts 268°
2026-04-20 19:56 18.58492 -72.19470 1740 ft 153 kts 269°
2026-04-20 19:56 18.58438 -72.20576 1527 ft 149 kts 268°
2026-04-20 19:56 18.58383 -72.21657 1320 ft 147 kts 268°
2026-04-20 19:56 18.58329 -72.22729 1125 ft 147 kts 266°
2026-04-20 19:57 18.58275 -72.23805 942 ft 147 kts 266°
2026-04-20 19:57 18.58221 -72.24876 750 ft 145 kts 267°
2026-04-20 19:57 18.58168 -72.25942 550 ft 146 kts 267°
2026-04-20 19:57 18.58120 -72.27004 328 ft 144 kts 269°
2026-04-20 19:58 18.58070 -72.28054 139 ft 140 kts 268°
2026-04-20 19:58 18.58030 -72.28956 114 ft 92 kts 266°
2026-04-20 19:58 18.58007 -72.29341 107 ft 27 kts 268°
2026-04-20 19:58 18.57956 -72.29475 105 ft 17 kts 189°
2026-04-20 19:59 18.57825 -72.29462 102 ft 11 kts 180°
2026-04-20 19:59 18.57742 -72.29460 99 ft 0 kts 178°
2026-04-20 19:59 18.57741 -72.29460 99 ft 2 kts 178°
2026-04-20 20:00 18.57689 -72.29480 101 ft 6 kts 228°
2026-04-20 20:00 18.57660 -72.29496 102 ft 3 kts 195°
2026-04-20 20:00 18.57645 -72.29500 102 ft 1 kts 193°
2026-04-20 20:00 18.57635 -72.29502 102 ft 1 kts 193°
2026-04-20 20:01 18.57634 -72.29503 102 ft 1 kts 193°
2026-04-20 20:01 18.57620 -72.29506 102 ft 0 kts 193°